Morteza Vafaei

Chefscout - Tractor
23 Apr 2028
Sonntag
Verarbeitung

Persönlichkeit

Anpassungsfähigkeit (9) Ehrgeiz (6) Kontroverse (18) Loyalität (17) Druck (6) Professionalität (5) Fairness (14) Temperament (3)

Profil

Trainerstil Demokratisch
Lizenz Kontinentale Pro
Entschlossenheit 6
Menschenführung 5
Motivation 10
Disziplin 5
Arbeitszufriedenheit
90%
Ermüdung
0%
Rolle Chefscout
Gehalt 15.2K p/W
Vertrag 14.03.2030

Leistung

Verhalten Gut
Trainingseffektivität
21%
Spielerentwicklung
45%
Verletzungsprävention
25%
Taktische Umsetzung
20%

Letzte Ereignisse

Spieler begutachtet jetzt
Nahm an einer Scouting-Besprechung teil jetzt
Nahm an einer Scouting-Besprechung teil jetzt
Empfahl ein Transferziel jetzt
Nahm an einer Scouting-Besprechung teil jetzt
Spieler begutachtet jetzt
Spieler begutachtet jetzt
Spieler begutachtet jetzt

Aktuell beobachtet

278
Spieler Verein Status Fähigkeit Vertrauen Beobachtet Zuletzt beobachtet Letzte Stimme
Ethan Ampadu Leeds United Aktiv 157 / 156 40% 2 22.04.2028 -
Lee Buchanan Sheffield Wednesday Aktiv 134 / 130 40% 2 22.04.2028 -
Yerson Mosquera Wolverhampton Aktiv 158 / 137 40% 4 21.04.2028 -
Timothy Castagne Stoke City Aktiv 157 / 134 40% 2 20.04.2028 -
Odel Offiah Shrewsbury Town Aktiv 143 / 124 40% 3 20.04.2028 -
Zeki Amdouni Luton Town Aktiv 135 / 132 40% 2 19.04.2028 -
Callum Brittain Middlesbrough Aktiv 145 / 139 40% 5 19.04.2028 -
Miles Leaburn Rotherham United Aktiv 136 / 116 40% 1 19.04.2028 -
Calvin Ramsay Bristol Rovers Aktiv 127 / 130 40% 1 19.04.2028 -
Max Conway Bolton Wanderers Aktiv 117 / 132 40% 2 17.04.2028 -
Joe Rodon Blackburn Rovers Aktiv 156 / 150 40% 2 17.04.2028 -
Thierry Small Preston Aktiv 125 / 120 40% 3 15.04.2028 -
Kenny Tete Fulham Aktiv 140 / 144 40% 2 14.04.2028 -
Ethan Galbraith Swansea City Aktiv 146 / 146 40% 2 14.04.2028 -
Max Bird Birmingham Aktiv 144 / 140 40% 1 13.04.2028 -
Dion Sanderson AFC Wimbledon Aktiv 138 / 128 40% 1 13.04.2028 -
Mohamed Simakan Persepolis Aktiv 144 / 147 40% 2 12.04.2028 -
Sander Berge Derby County Aktiv 148 / 153 40% 3 11.04.2028 -
Mateu Morey Girona Aktiv 148 / 136 40% 1 11.04.2028 -
Álex Forés Burgos Aktiv 137 / 132 40% 1 11.04.2028 -
Charlie Kelman Barnsley Aktiv 124 / 109 40% 1 11.04.2028 -
Max Arfsten Middlesbrough Aktiv 138 / 131 40% 2 09.04.2028 -
Jon Balda Real Sociedad Aktiv 124 / 134 40% 1 09.04.2028 -
Will Fish Cardiff City Aktiv 117 / 134 40% 1 08.04.2028 -
Dennis Cirkin Queens Park Rangers Aktiv 123 / 138 40% 1 08.04.2028 -
Ethan Pye Stockport County Aktiv 113 / 122 40% 1 06.04.2028 -
Ollie Watkins Al-Hilal Aktiv 164 / 150 40% 2 05.04.2028 -
Marc Bola Watford Aktiv 135 / 120 40% 1 05.04.2028 -
Leandro Antunes Al-Riyadh Aktiv 117 / 123 40% 1 05.04.2028 -
Everton Bala Ludogorets Aktiv 126 / 126 40% 1 02.04.2028 -
Mohammad Mohebi Sepahan Aktiv 123 / 125 40% 1 02.04.2028 -
Josh King Newcastle United Aktiv 144 / 139 40% 1 02.04.2028 -
Lamare Bogarde Reading Aktiv 150 / 141 40% 1 02.04.2028 -
Nobel Mendy Hull City Aktiv 134 / 148 40% 2 01.04.2028 -
Malik Mothersille Stockport County Aktiv 111 / 114 40% 2 30.03.2028 -
Gaetano Oristanio Venezia Aktiv 126 / 145 40% 1 30.03.2028 -
Joe Rankin-Costello Charlton Athletic Aktiv 137 / 129 40% 3 28.03.2028 -
Manfred Ugalde Spartak Moscow Aktiv 151 / 135 40% 2 27.03.2028 -
Tommy Conway Middlesbrough Aktiv 123 / 131 40% 1 27.03.2028 -
Bafodé Diakité Plymouth Argyle Aktiv 135 / 140 40% 3 25.03.2028 -
Pablo Ibañez Alavés Aktiv 134 / 144 40% 1 25.03.2028 -
Eivind Helland AC Milan Aktiv 132 / 142 40% 1 24.03.2028 -
Ben Chilwell Sheffield United Aktiv 138 / 149 40% 1 24.03.2028 -
Josh Nichols Oldham Athletic Aktiv 135 / 134 40% 1 23.03.2028 -
Derry Murkin Derby County Aktiv 146 / 125 40% 1 23.03.2028 -
Bobby Thomas Grimsby Town Aktiv 143 / 130 40% 1 22.03.2028 -
Ramón Valladolid Aktiv 138 / 143 40% 1 21.03.2028 -
Daichi Kamada Luton Town Aktiv 152 / 151 40% 4 20.03.2028 -
James Justin Leeds United Aktiv 153 / 131 40% 2 20.03.2028 -
Reuell Walters Luton Town Aktiv 136 / 116 40% 1 19.03.2028 -
Kristoffer Lund Birmingham Aktiv 136 / 124 40% 1 18.03.2028 -
Adrià Altimira Deportivo La Coruña Aktiv 133 / 143 40% 1 16.03.2028 -
Mattia Felici Cagliari Aktiv 146 / 144 40% 1 15.03.2028 -
Rocco Vata Watford Aktiv 113 / 117 40% 1 14.03.2028 -
Luca Williams-Barnett Walsall Aktiv 108 / 133 40% 1 14.03.2028 -
Victor Kristiansen Stevenage Aktiv 149 / 127 40% 2 13.03.2028 -
Tim Iroegbunam Peterborough United Aktiv 147 / 134 40% 1 09.03.2028 -
Nat Phillips Burton Albion Aktiv 114 / 133 40% 1 08.03.2028 -
Will Hughes Bloemfontein Celtic Aktiv 123 / 145 40% 3 07.03.2028 -
Connor Roberts Notts County Aktiv 143 / 128 40% 1 07.03.2028 -
Orkun Kökçü AZ Aktiv 149 / 148 40% 1 05.03.2028 -
Alfie Gilchrist West Bromwich Albion Aktiv 146 / 138 40% 1 04.03.2028 -
Jordan Lotomba Bloemfontein Celtic Aktiv 145 / 135 40% 1 03.03.2028 -
Pelle Mattsson Norwich City Aktiv 119 / 139 40% 1 28.02.2028 -
Álvaro Tejero Leganés Aktiv 129 / 128 40% 2 27.02.2028 -
Igor Burnley Aktiv 161 / 138 40% 2 26.02.2028 -
Ben Chrisene Crawley Town Aktiv 137 / 122 40% 1 26.02.2028 -
Nicolas Madsen Queens Park Rangers Aktiv 151 / 131 40% 1 21.02.2028 -
Hidemasa Morita Hull City Aktiv 148 / 147 40% 1 20.02.2028 -
Ghislain Konan Mansfield Town Aktiv 118 / 129 40% 1 20.02.2028 -
Gedson Fernandes Spartak Moscow Aktiv 131 / 147 40% 1 18.02.2028 -
Lewis Bate Stockport County Aktiv 135 / 126 40% 1 14.02.2028 -
Armstrong Oko-Flex Levski Aktiv 126 / 123 40% 1 14.02.2028 -
Timur Suleimanov Nizhniy Novgorod Aktiv 106 / 121 40% 1 14.02.2028 -
Karlan Grant Tranmere Rovers Aktiv 141 / 134 40% 1 12.02.2028 -
Aune Heggebø West Bromwich Albion Aktiv 115 / 139 40% 1 12.02.2028 -
Brandon Thomas-Asante Blackpool Aktiv 117 / 115 40% 1 11.02.2028 -
Sam Greenwood Bristol City Aktiv 146 / 121 40% 3 09.02.2028 -
Callum O'Hare Sheffield United Aktiv 137 / 144 40% 1 09.02.2028 -
Zito Luvumbo Cagliari Aktiv 153 / 132 40% 1 08.02.2028 -
Facundo Batista Penarol Aktiv 130 / 117 40% 2 07.02.2028 -
Jhon Solís Birmingham Aktiv 152 / 134 40% 1 07.02.2028 -
Arthur Sales Maritzburg United Aktiv 136 / 116 40% 1 07.02.2028 -
Victor Torp Bristol Rovers Aktiv 147 / 136 40% 1 03.02.2028 -
Tyler Adams Bournemouth Aktiv 141 / 166 40% 1 02.02.2028 -
Alexander Díaz Deportivo Riestra Verloren 121 / 123 40% 1 31.01.2028 -
Dor Turgeman Rubin Aktiv 144 / 123 40% 1 31.01.2028 -
Armstrong Oko-Flex Levski Verloren 138 / 126 40% 1 25.01.2028 -
Emiliano Álvarez Progreso Verloren 133 / 116 40% 4 18.01.2028 -
Agustín Dattola Almirante Brown Verloren 120 / 116 40% 1 18.01.2028 -
Alan García Wanderers Aktiv 120 / 110 40% 1 10.01.2028 -
Joaquín García Vélez Aktiv 121 / 130 40% 1 10.01.2028 -
Hossein Sadeghi Malavan Aktiv 107 / 100 55% 1 07.01.2028 -
Daniel Barrea Godoy Cruz Verloren 127 / 124 40% 2 02.01.2028 -
Saeid Pouraliganji Rah Ahan Verloren 109 / 109 66% 1 01.01.2028 Befürworten
Saeid Sadeghi Ittihad Aktiv 109 / 109 67% 1 01.01.2028 Befürworten
Tiago Palacios Estudiantes Aktiv 126 / 125 40% 1 30.12.2027 -
Alexis Cuello San Lorenzo Aktiv 133 / 124 40% 1 29.12.2027 -
Oscar Garrido Mitre Aktiv 121 / 111 40% 3 28.12.2027 -
Alex Luna Instituto Aktiv 133 / 128 40% 4 27.12.2027 -
Santiago Montiel Independiente Aktiv 135 / 134 40% 6 27.12.2027 -
Iñaki Larthirigoyen San Telmo Aktiv 115 / 116 40% 10 25.12.2027 -
Victor Hernandez Santa Fe Aktiv 125 / 125 40% 3 24.12.2027 -
Facundo Altamira Godoy Cruz Aktiv 135 / 128 40% 5 23.12.2027 -
Franco Zapiola Platense Aktiv 137 / 127 40% 1 23.12.2027 Mehr Infos nötig
Patricio Moyano Defensores Aktiv 128 / 120 40% 6 22.12.2027 -
Jhonatan Candia Barracas Central Aktiv 119 / 123 40% 3 22.12.2027 -
Sebastián Jaurena San Martín SJ Aktiv 117 / 113 40% 2 19.12.2027 -
Gastón Togni Defensa y Justicia Aktiv 121 / 129 40% 2 19.12.2027 -
Nicolás Laméndola Atlético Tucumán Aktiv 126 / 115 40% 1 18.12.2027 -
Matías Vargas Gimnasia y Esgrima Aktiv 137 / 127 40% 1 17.12.2027 -
Martín Campos Ferro Carril Oeste Aktiv 118 / 120 40% 2 14.12.2027 -
Manuel Mónaco Sarmiento Aktiv 115 / 118 40% 5 11.12.2027 -
Leandro Suhr Boston River Aktiv 110 / 122 40% 2 10.12.2027 -
Hernán Toledo Albion Aktiv 124 / 115 40% 3 09.12.2027 -
Xavier Biscayzacú Defensor Sporting Aktiv 122 / 129 40% 6 06.12.2027 -
Alejo Dramisino Atlanta Aktiv 124 / 115 40% 3 06.12.2027 -
Esteban Obregón Montevideo City Torque Aktiv 126 / 115 40% 3 04.12.2027 -
Lucas Souto Defensa y Justicia Aktiv 118 / 124 40% 2 04.12.2027 -
Santiago Rosales Mitre Aktiv 117 / 112 40% 2 03.12.2027 -
Ignacio Perruzzi San Lorenzo Aktiv 133 / 134 40% 1 03.12.2027 -
Lucas Carrizo Newell's Old Boys Aktiv 136 / 122 40% 1 03.12.2027 -
Nicolás Retamar Ferro Carril Oeste Aktiv 127 / 119 40% 4 01.12.2027 -
Alejo Cruz Juventud Aktiv 132 / 116 40% 3 29.11.2027 -
Bruno Larregui Juventud Aktiv 121 / 118 40% 2 28.11.2027 -
Juan Bisanz Huracán Aktiv 136 / 132 40% 4 26.11.2027 -
Jherson Mosquera Newell's Old Boys Aktiv 127 / 123 40% 1 25.11.2027 -
Adrian Pereira Rosenborg Aktiv 119 / 128 40% 1 25.11.2027 -
Sebastián Medina Tigre Aktiv 116 / 116 40% 1 23.11.2027 -
Fabricio Corbalán Gimnasia La Plata Aktiv 115 / 127 40% 1 22.11.2027 -
Santiago González Tigre Aktiv 130 / 126 40% 1 21.11.2027 -
Fernando Martínez Central Córdoba SdE Aktiv 127 / 124 40% 2 17.11.2027 -
Jens Petter Hauge Bodo/Glimt Aktiv 130 / 144 40% 1 17.11.2027 -
Rodrigo Herrera Newell's Old Boys Aktiv 118 / 121 40% 1 17.11.2027 -
Emanuel Mammana Vélez Aktiv 140 / 133 40% 1 16.11.2027 -
Hernán de la Fuente Instituto Aktiv 115 / 124 40% 1 12.11.2027 -
Juan Infante Atlético Tucumán Aktiv 123 / 117 40% 1 12.11.2027 -
Giorgi Arabidze Torpedo Kutaisi Aktiv 102 / 116 40% 4 11.11.2027 -
Gastón Lodico Racing Club Aktiv 121 / 122 40% 1 11.11.2027 -
Augusto Schott Talleres Aktiv 134 / 129 40% 1 08.11.2027 -
Emil Breivik Molde Aktiv 134 / 132 40% 1 08.11.2027 -
Imran Oulad Omar Dinamo Batumi Aktiv 133 / 126 40% 1 06.11.2027 -
Matías Zaracho Racing Club Aktiv 125 / 126 40% 2 05.11.2027 -
Aarón Molinas Defensa y Justicia Aktiv 125 / 124 40% 3 31.10.2027 -
Jonás Acevedo Instituto Aktiv 129 / 117 40% 1 27.10.2027 -
Bruno Leyes Godoy Cruz Aktiv 135 / 129 40% 2 24.10.2027 -
Jonás Luna Wanderers Aktiv 120 / 127 40% 1 23.10.2027 -
Joel Ezra Enyimba Aktiv 97 / 106 40% 1 17.10.2027 -
Joaquín Gho Argentinos Juniors Aktiv 119 / 127 40% 1 14.10.2027 -
Marcelino Moreno Lanús Aktiv 136 / 132 40% 1 14.10.2027 -
Antonio Galeano Remo Stars Aktiv 115 / 120 40% 3 12.10.2027 -
Luis Rodriguez Valur Aktiv 133 / 117 40% 1 08.10.2027 -
Diego García Danubio Aktiv 128 / 120 40% 2 07.10.2027 -
Luciano Boggio Nacional Aktiv 122 / 125 40% 3 06.10.2027 -
Rodrigo González Mitre Aktiv 108 / 114 40% 1 04.10.2027 -
Ignacio Fernández Boston River Aktiv 100 / 97 40% 1 04.10.2027 -
Matías Canedo Rampla Juniors Aktiv 86 / 95 40% 1 04.10.2027 -
Federico Bisanz Atlanta Aktiv 107 / 112 40% 1 28.09.2027 -
Ramiro Peralta Juventud Aktiv 128 / 115 40% 1 15.09.2027 -
Franco Nicola Liverpool Montevideo Aktiv 127 / 124 40% 1 30.08.2027 -
Joel Bagan Cardiff City Aktiv 134 / 125 40% 1 09.08.2027 -
Idris El Mizouni Leyton Orient Aktiv 138 / 123 40% 1 09.08.2027 -
Ali Ahmed Norwich City Aktiv 141 / 117 40% 1 06.08.2027 -
Louie Barry Sheffield Wednesday Aktiv 126 / 134 40% 2 04.08.2027 -
Daniel Kyerewaa Reading Aktiv 134 / 123 40% 2 03.08.2027 -
Alex Robertson Cardiff City Aktiv 139 / 115 40% 1 03.08.2027 -
Jacques Ekomié Wrexham Aktiv 142 / 125 40% 1 02.08.2027 -
Andrea Bertoncini Triestina Aktiv 81 / 88 40% 1 01.07.2027 -
Francis Gomez Cardiff City Aktiv 104 / 106 40% 1 01.07.2027 -
Lorent Tolaj Plymouth Argyle Aktiv 116 / 128 40% 1 21.06.2027 -
Che Adams Torino Aktiv 151 / 131 40% 1 21.06.2027 -
Nestory Irankunda Watford Aktiv 113 / 127 40% 1 03.06.2027 -
Caleb Yirenkyi Coventry City Aktiv 136 / 130 40% 1 03.06.2027 -
Alex Villa González Atlético Tucumán Aktiv 79 / 94 40% 3 30.05.2027 -
Román Colo All Boys Aktiv 82 / 89 40% 2 26.05.2027 -
Roberto Moreno Cruz Azul Aktiv 74 / 88 40% 1 25.05.2027 -
Mathías Aguiar Montevideo City Torque Aktiv 71 / 95 40% 1 25.05.2027 -
Agustín Nogueira Barracas Central Aktiv 81 / 95 40% 2 22.05.2027 -
Saúl Durán River Plate Aktiv 87 / 90 40% 1 22.05.2027 -
Riley Owen Stevenage Aktiv 96 / 110 40% 1 22.05.2027 -
Tommaso Cecotti Carpi Aktiv 80 / 98 40% 1 22.05.2027 -
Lautaro Cueli San Lorenzo Aktiv 102 / 99 40% 4 19.05.2027 -
Max Kerkvliet Real Salt Lake Aktiv 91 / 93 40% 3 18.05.2027 -
Will Murdock Manchester United Aktiv 99 / 92 40% 1 18.05.2027 -
Juan González Atlético Tucumán Aktiv 86 / 99 40% 2 17.05.2027 -
Kiani Inge Groningen Aktiv 91 / 105 40% 3 15.05.2027 -
Juan Manuel Centurión Independiente Aktiv 93 / 99 40% 2 15.05.2027 -
Bailey Hall Liverpool Aktiv 70 / 83 40% 1 15.05.2027 -
Tiago Freitas Benfica Aktiv 121 / 105 40% 1 13.05.2027 -
Joaquín Sevegnani Colegiales Aktiv 93 / 97 40% 2 12.05.2027 -
Jakub Badžgoň MSK Zilina Aktiv 119 / 110 40% 4 12.05.2027 Beobachten
Josh Acheampong Everton Aktiv 154 / 138 40% 1 09.05.2027 -
Samuele di Benedetto Twente Aktiv 113 / 120 40% 1 09.05.2027 -
Joaquín Giudice Platense Aktiv 84 / 97 40% 1 08.05.2027 -
Gonçalo Ribeiro Porto Aktiv 83 / 109 40% 5 06.05.2027 -
Salvador Blopá Sporting CP Aktiv 103 / 113 40% 3 06.05.2027 -
Felipe Igón Racing Club Aktiv 87 / 103 40% 5 04.05.2027 -
Julián Alcar Banfield Aktiv 89 / 92 40% 2 03.05.2027 -
Grant Leveille DC United Aktiv 70 / 103 40% 1 01.05.2027 -
Jeifer Nontoa Banfield Aktiv 80 / 90 40% 2 30.04.2027 -
César Bravo Barranquilla Aktiv 80 / 89 40% 1 29.04.2027 -
Finn Jeltsch VfB Stuttgart Aktiv 136 / 131 40% 3 28.04.2027 -
Agustín Ayala Gimnasia La Plata Aktiv 80 / 96 40% 1 28.04.2027 -
Luke Campbell Bolton Wanderers Aktiv 102 / 103 40% 1 25.04.2027 -
Sebastián Hurtado Aalborg Aktiv 98 / 86 40% 1 24.04.2027 -
Dante Jadli Temperley Aktiv 74 / 86 40% 1 23.04.2027 -
Carlos Hernández Deportivo Riestra Aktiv 77 / 94 40% 2 22.04.2027 -
Joel Abregu Temperley Aktiv 69 / 87 40% 1 19.04.2027 -
Esteban Ojeda Estudiantes Aktiv 78 / 81 40% 1 18.04.2027 -
Luca Martelli Forli Aktiv 84 / 89 40% 1 16.04.2027 -
Ivan Giraldo Valencia Aktiv 116 / 123 40% 2 13.04.2027 -
Federico Bonilla River Plate Aktiv 86 / 98 40% 2 09.04.2027 -
Edwin Asamoah Berekum Chelsea Aktiv 76 / 77 40% 1 09.04.2027 -
James Dornelly Peterborough United Aktiv 97 / 118 40% 1 07.04.2027 -
Afriyie Sulemana WAFA Aktiv 78 / 102 40% 1 06.04.2027 -
Jeremías Robledo Acosta Newell's Old Boys Aktiv 93 / 95 40% 3 03.04.2027 -
Patricio Flores Defensa y Justicia Aktiv 77 / 96 40% 1 03.04.2027 -
Santiago Direnna Miramar Misiones Aktiv 84 / 78 40% 1 01.04.2027 -
Lisandro Musso Central Córdoba SdE Aktiv 88 / 92 40% 1 31.03.2027 -
Ikenna Nkwazema FC Diarra Aktiv 66 / 77 40% 1 25.03.2027 -
Duran Ferree San Diego Football Club Aktiv 108 / 95 40% 2 18.03.2027 -
Franco Capponi Aldosivi Aktiv 83 / 102 40% 2 17.03.2027 -
Stefano Condino All Boys Aktiv 79 / 87 40% 1 11.03.2027 -
Leonardo Sosa Rosario Central Aktiv 94 / 105 40% 2 09.03.2027 -
Emanuel Bonda Argentinos Juniors Aktiv 81 / 98 40% 1 09.03.2027 -
Thiago Nahuel Independiente Aktiv 94 / 86 40% 2 08.03.2027 -
David Ozoh Derby County Aktiv 109 / 137 40% 2 06.03.2027 -
Germán Barbas Burgos Aktiv 91 / 117 40% 1 06.03.2027 -
Dmitry Pestryakov Krasnodar Aktiv 99 / 110 40% 1 05.03.2027 -
Teboho Mokoena Black Aces Aktiv 69 / 84 40% 1 03.03.2027 -
Jhon Azcárate Slask Aktiv 67 / 92 40% 1 01.01.2027 -
Bongani Zungu Ajax Cape Town Aktiv 122 / 130 40% 3 28.12.2026 -
Naphtali Mokoena Bloemfontein Celtic Aktiv 98 / 88 40% 1 28.12.2026 -
Reda Khadra Qarabag Aktiv 143 / 128 40% 1 28.12.2026 -
Oscar Destiny Barau Aktiv 80 / 92 40% 3 26.12.2026 -
Zoltan Kleinheisler Haladas Aktiv 94 / 103 40% 3 25.12.2026 -
Santiago Gutiérrez Puskas Akademia Aktiv 83 / 101 40% 1 24.12.2026 -
Andy Ezekiel Petrojet Aktiv 78 / 105 40% 1 23.12.2026 -
Ignacio Abarza Huracán Aktiv 93 / 98 40% 2 22.12.2026 -
Maxim Shichanin Zenit Aktiv 97 / 83 40% 3 18.12.2026 -
Guilherme Pires Sporting CP Aktiv 80 / 98 40% 2 17.12.2026 -
Favour Bala Plateau United Aktiv 80 / 103 40% 1 16.12.2026 -
Álex Centelles Levski Aktiv 131 / 119 40% 2 15.12.2026 -
Sergey Pinyaev Lokomotiv Moscow Aktiv 118 / 125 40% 1 15.12.2026 -
Sabino González Sarmiento Aktiv 75 / 90 40% 3 10.12.2026 -
Jerónimo Gutiérrez Independiente Rivadavia Aktiv 84 / 92 40% 1 05.12.2026 -
Ehsan Shojaei Gostaresh Foulad Aktiv 78 / 93 40% 1 02.12.2026 -
Juan Ignacio Berasi Colón Aktiv 81 / 87 40% 1 28.11.2026 -
Oswin Appollis Orlando Pirates Aktiv 109 / 130 40% 1 25.11.2026 -
Franco Yennerich Talleres Aktiv 80 / 87 40% 1 25.11.2026 -
Tomás Chetelain Estudiantes Aktiv 92 / 87 40% 1 24.11.2026 -
Ayoub Akabou Ceuta Aktiv 98 / 85 40% 2 20.11.2026 -
Gerardo Díaz San Martín SJ Aktiv 86 / 99 40% 1 19.11.2026 -
Joel Abraham Boston River Aktiv 77 / 91 40% 2 16.11.2026 -
Benicio Romero Racing Club Aktiv 84 / 86 40% 1 16.11.2026 -
Fabricio Díaz San Lorenzo Aktiv 91 / 100 40% 1 15.11.2026 -
João Félix Dinamo Moscow Aktiv 154 / 145 40% 1 11.11.2026 -
Ashkan Rashedi Zob Ahan Aktiv 105 / 93 40% 2 06.11.2026 -
Ammar Ramadan DAC Dunajska Streda Aktiv 124 / 134 40% 1 30.10.2026 -
Ole-Didrik Blomberg Bodo/Glimt Aktiv 135 / 127 40% 1 29.10.2026 -
Mohammad Mehdi Mohebi Persepolis Aktiv 129 / 118 40% 2 26.10.2026 Mehr Infos nötig
Martín D'Aurizio Huracán Aktiv 94 / 95 40% 1 22.10.2026 -
Kamil Dudek Burton Albion Aktiv 100 / 85 40% 1 22.10.2026 -
Tyrhys Dolan Espanyol Aktiv 131 / 143 40% 1 22.10.2026 -
Aria Yousefi Sepahan Aktiv 123 / 114 40% 1 21.10.2026 -
Facundo Di Sibio Agropecuario Argentino Aktiv 90 / 90 40% 1 17.10.2026 -
Emiliano Zacca Deportivo Riestra Aktiv 85 / 100 40% 1 15.10.2026 -
Martín Díaz Lanús Aktiv 88 / 84 40% 1 14.10.2026 -
Nikita Krivtsov Krasnodar Aktiv 126 / 123 40% 1 12.10.2026 -
Bradley Zwane SuperSport United Aktiv 113 / 123 40% 1 08.10.2026 -
Kein Sato FC Tokyo Aktiv 146 / 128 40% 1 08.10.2026 -
Agustín Martínez Cádiz Aktiv 98 / 88 40% 1 08.10.2026 -
Agustín Albrini Independiente Rivadavia Aktiv 82 / 95 40% 2 02.10.2026 -
Sebastián Miño Patronato Aktiv 89 / 83 40% 1 22.09.2026 -
Kayne Rizvanovich Minnesota United FC Aktiv 92 / 85 40% 1 22.09.2026 -
Saeid Saharkhizan Sepahan Aktiv 102 / 119 40% 1 25.08.2026 -
Rouzbeh Cheshmi Esteghlal Aktiv 130 / 122 51% 1 24.08.2026 -
Joe Gelhardt Hull City Aktiv 143 / 124 40% 1 01.08.2026 -